Location: Cerezo de Arriba
(41.2389°N, 3.5585°W)
Time: 03:37:35
(UTC+00:00)

Cosmos 1980 Rocket - Pass Details

Date: 19 May 2025
Orbit: 829 x 848 km, 71.0° (Epoch: 23 June)

Event Time Altitude Azimuth Distance (km) Brightness Sun altitude
Rises 22:30:45 0° 334° (NNW) 3,380 6.8 -24.5°
Reaches altitude 10° 22:33:11 10° 334° (NNW) 2,443 5.7 -24.7°
Maximum altitude 22:38:47 79° 249° (WSW) 852 2.1 -25.2°
Enters shadow 22:39:29 67° 187° (S) 900 2.0 -25.2°
